Ansonville, NC

2:52 AM EST on February 12, 2016 (GMT -0500)
Anson County

Weather History for KAFP - October, 2012

Change the Weather History Date:

Sunday, October 7, 2012

  Actual Average (KCLT) Record (KCLT)
Temperature  
Mean Temperature 58 °F 63 °F  
Max Temperature 66 °F 74 °F 91 °F (1951)
Min Temperature 51 °F 52 °F 34 °F (1935)
Degree Days  
Heating Degree Days 6 4  
Month to date heating degree days 22  
Since 1 July heating degree days 45  
Cooling Degree Days 0 2  
Month to date cooling degree days 17  
Year to date cooling degree days 1492  
Growing Degree Days 8 (Base 50)    
Moisture  
Dew Point 54 °F    
Average Humidity 88    
Maximum Humidity 94    
Minimum Humidity 77    
Precipitation  
Precipitation 0.05 in 0.11 in 2.70 in (1949)
Month to date precipitation 0.82  
Year to date precipitation 32.66  
Snow  
Snow 0.00 in 0.00 in 0.00 in ()
Month to date snowfall 0.0  
Since 1 July snowfall 0.0  
Since 1 September snowfall 0.0  
Snow Depth -    
Sea Level Pressure  
Sea Level Pressure 30.03 in    
Wind  
Wind Speed 6 mph (NNE)    
Max Wind Speed 16 mph    
Max Gust Speed 21 mph    
Visibility 10 miles    
Events Rain    
T = Trace of Precipitation, MM = Missing Value Source: NWS Daily Summary

Daily Weather History Graph

Daily Weather History Graph

Search for Another Location

Airport or City:

Trip Planner

Search our weather history database for the weather conditions in past years. The results will help you decide how hot, cold, wet, or windy it might be!

Date:

Astronomy

Oct. 07, 2012 Rise Set
Actual Time 7:20 AM EDT 6:55 PM EDT
Civil Twilight 6:54 AM EDT 7:20 PM EDT
Nautical Twilight 6:25 AM EDT 7:49 PM EDT
Astronomical Twilight 5:56 AM EDT 8:19 PM EDT
Moon No Moon Rise 1:46 PM EDT (10/7)
Length of Visible Light 12h 25m
Length of Day
11h 35m
Waning Gibbous, 56% of the Moon is Illuminated
Oct 7
Waning Gibbous
Oct 8
Last Quarter
Oct 15
New
Oct 21
First Quarter
Oct 29
Full

Hourly Weather History & Observations

Time (EDT) Temp. Dew Point Humidity Pressure Visibility Wind Dir Wind Speed Gust Speed Precip Events Conditions
12:15 AM 66.2 °F 64.4 °F 94% 29.96 in 7.0 mi NNE 4.6 mph - N/A   Overcast
12:35 AM 66.2 °F 62.6 °F 88% 29.96 in 10.0 mi NNE 4.6 mph - N/A   Overcast
12:55 AM 64.4 °F 62.6 °F 94% 29.98 in 7.0 mi NNW 9.2 mph - N/A   Overcast
1:15 AM 64.4 °F 60.8 °F 88% 29.98 in 10.0 mi North 9.2 mph - N/A   Mostly Cloudy
1:35 AM 62.6 °F 59.0 °F 88% 29.98 in 10.0 mi North 5.8 mph - N/A   Mostly Cloudy
1:55 AM 62.6 °F 57.2 °F 82% 29.98 in 10.0 mi NNE 10.4 mph - N/A   Mostly Cloudy
2:15 AM 60.8 °F 55.4 °F 82% 29.98 in 10.0 mi NNE 6.9 mph - N/A   Scattered Clouds
2:35 AM 59.0 °F 55.4 °F 88% 29.98 in 10.0 mi North 4.6 mph - N/A   Clear
2:55 AM 59.0 °F 55.4 °F 88% 29.98 in 10.0 mi North 4.6 mph - N/A   Scattered Clouds
3:15 AM 59.0 °F 55.4 °F 88% 29.97 in 10.0 mi NNE 3.5 mph - N/A   Scattered Clouds
3:35 AM 57.2 °F 55.4 °F 94% 29.97 in 10.0 mi North 4.6 mph - N/A   Clear
3:55 AM 57.2 °F 55.4 °F 94% 29.98 in 10.0 mi NNW 5.8 mph - N/A   Clear
4:15 AM 57.2 °F 53.6 °F 88% 29.98 in 10.0 mi North 5.8 mph - N/A   Clear
4:35 AM 57.2 °F 53.6 °F 88% 29.98 in 10.0 mi North 3.5 mph - N/A   Clear
4:55 AM 55.4 °F 53.6 °F 94% 29.97 in 10.0 mi NE 3.5 mph - N/A   Clear
5:15 AM 55.4 °F 53.6 °F 94% 29.98 in 10.0 mi North 3.5 mph - N/A   Scattered Clouds
5:35 AM 55.4 °F 53.6 °F 94% 29.97 in 10.0 mi Calm Calm - N/A   Scattered Clouds
5:55 AM 55.4 °F 53.6 °F 94% 29.97 in 10.0 mi North 3.5 mph - N/A   Scattered Clouds
6:15 AM 55.4 °F 53.6 °F 94% 29.97 in 10.0 mi North 3.5 mph - N/A   Clear
6:35 AM 55.4 °F 53.6 °F 94% 29.97 in 10.0 mi Calm Calm - N/A   Clear
6:55 AM 55.4 °F 53.6 °F 94% 29.97 in 10.0 mi Calm Calm - N/A   Scattered Clouds
7:15 AM 55.4 °F 53.6 °F 94% 29.98 in 10.0 mi Calm Calm - N/A   Overcast
7:35 AM 55.4 °F 53.6 °F 94% 29.99 in 10.0 mi Calm Calm - N/A   Scattered Clouds
7:55 AM 55.4 °F 53.6 °F 94% 30.00 in 10.0 mi Calm Calm - N/A   Scattered Clouds
8:15 AM 57.2 °F 53.6 °F 88% 30.04 in 10.0 mi NW 13.8 mph - N/A   Mostly Cloudy
8:35 AM 55.4 °F 53.6 °F 94% 30.04 in 5.0 mi NNE 11.5 mph 20.7 mph 0.04 in Rain Heavy Rain
8:55 AM 55.4 °F 53.6 °F 94% 30.04 in 10.0 mi NE 4.6 mph - 0.05 in Rain Light Rain
9:15 AM 57.2 °F 55.4 °F 94% 30.04 in 10.0 mi NE 8.1 mph - N/A   Mostly Cloudy
9:35 AM 57.2 °F 55.4 °F 94% 30.05 in 10.0 mi NE 9.2 mph - N/A   Mostly Cloudy
9:55 AM 57.2 °F 53.6 °F 88% 30.04 in 10.0 mi ENE 9.2 mph - N/A   Overcast
10:15 AM 57.2 °F 53.6 °F 88% 30.04 in 10.0 mi NNE 6.9 mph - N/A   Overcast
10:35 AM 55.4 °F 53.6 °F 94% 30.04 in 10.0 mi NE 4.6 mph - N/A   Overcast
10:55 AM 55.4 °F 53.6 °F 94% 30.05 in 10.0 mi NE 6.9 mph - N/A   Overcast
11:15 AM 55.4 °F 51.8 °F 88% 30.05 in 10.0 mi North 6.9 mph - N/A   Overcast
11:35 AM 57.2 °F 51.8 °F 82% 30.05 in 10.0 mi NNE 6.9 mph - N/A   Overcast
11:55 AM 59.0 °F 51.8 °F 77% 30.05 in 10.0 mi NNE 6.9 mph - N/A   Overcast
12:15 PM 59.0 °F 53.6 °F 82% 30.05 in 10.0 mi NE 4.6 mph - N/A   Overcast
12:35 PM 59.0 °F 53.6 °F 82% 30.04 in 10.0 mi NE 4.6 mph - N/A   Overcast
12:55 PM 59.0 °F 53.6 °F 82% 30.04 in 10.0 mi North 5.8 mph - N/A   Overcast
1:15 PM 59.0 °F 51.8 °F 77% 30.04 in 10.0 mi North 6.9 mph - N/A   Overcast
1:35 PM 59.0 °F 51.8 °F 77% 30.03 in 10.0 mi North 6.9 mph - N/A   Overcast
1:55 PM 59.0 °F 53.6 °F 82% 30.03 in 10.0 mi NNE 5.8 mph - N/A   Overcast
2:15 PM 57.2 °F 53.6 °F 88% 30.03 in 10.0 mi NE 5.8 mph - N/A   Overcast
2:35 PM 59.0 °F 53.6 °F 82% 30.03 in 10.0 mi NNE 5.8 mph - N/A   Overcast
2:55 PM 59.0 °F 53.6 °F 82% 30.02 in 10.0 mi NNE 3.5 mph - N/A   Overcast
3:15 PM 59.0 °F 53.6 °F 82% 30.01 in 10.0 mi North 4.6 mph - N/A   Overcast
3:35 PM 59.0 °F 53.6 °F 82% 30.02 in 10.0 mi North 4.6 mph - N/A   Overcast
3:55 PM 59.0 °F 53.6 °F 82% 30.03 in 10.0 mi North 3.5 mph - N/A   Overcast
4:15 PM 59.0 °F 53.6 °F 82% 30.04 in 10.0 mi NNE 4.6 mph - N/A   Overcast
4:35 PM 59.0 °F 53.6 °F 82% 30.03 in 10.0 mi NNE 3.5 mph - N/A   Overcast
4:55 PM 59.0 °F 53.6 °F 82% 30.03 in 10.0 mi NNE 3.5 mph - N/A   Overcast
5:15 PM 59.0 °F 53.6 °F 82% 30.04 in 10.0 mi NNE 5.8 mph - N/A   Overcast
5:35 PM 59.0 °F 53.6 °F 82% 30.05 in 10.0 mi North 8.1 mph - N/A   Overcast
5:55 PM 59.0 °F 53.6 °F 82% 30.05 in 10.0 mi North 9.2 mph - N/A   Overcast
6:15 PM 57.2 °F 51.8 °F 82% 30.08 in 10.0 mi NNW 16.1 mph - N/A   Overcast
6:35 PM 55.4 °F 51.8 °F 88% 30.08 in 10.0 mi North 9.2 mph - N/A   Overcast
6:55 PM 55.4 °F 51.8 °F 88% 30.09 in 10.0 mi North 5.8 mph - N/A   Overcast
7:15 PM 55.4 °F 51.8 °F 88% 30.09 in 10.0 mi NNE 9.2 mph - N/A   Overcast
7:35 PM 55.4 °F 51.8 °F 88% 30.10 in 10.0 mi North 6.9 mph - N/A   Overcast
7:55 PM 55.4 °F 51.8 °F 88% 30.10 in 10.0 mi North 10.4 mph - N/A   Overcast
8:15 PM 55.4 °F 51.8 °F 88% 30.10 in 10.0 mi North 10.4 mph - N/A   Overcast
8:55 PM 53.6 °F 50.0 °F 88% 30.11 in 10.0 mi NNE 6.9 mph - N/A   Overcast
9:15 PM 53.6 °F 50.0 °F 88% 30.11 in 10.0 mi NNE 6.9 mph - N/A   Overcast
9:35 PM 53.6 °F 50.0 °F 88% 30.12 in 10.0 mi North 3.5 mph - N/A   Overcast
9:55 PM 53.6 °F 50.0 °F 88% 30.13 in 10.0 mi North 3.5 mph - N/A   Scattered Clouds
10:15 PM 53.6 °F 50.0 °F 88% 30.13 in 10.0 mi North 3.5 mph - N/A   Scattered Clouds
10:35 PM 51.8 °F 50.0 °F 94% 30.12 in 10.0 mi NNE 3.5 mph - N/A   Scattered Clouds
10:55 PM 51.8 °F 50.0 °F 94% 30.13 in 10.0 mi North 3.5 mph - N/A   Clear
11:15 PM 51.8 °F 50.0 °F 94% 30.13 in 10.0 mi Calm Calm - N/A   Mostly Cloudy
11:35 PM 51.8 °F 50.0 °F 94% 30.14 in 10.0 mi North 3.5 mph - N/A   Overcast
11:55 PM 51.8 °F 50.0 °F 94% 30.13 in 10.0 mi NNE 4.6 mph - N/A   Overcast